When you browse on this site, cookies collect data to enhance your experience and personalize the content and advertising you see.
Visit our Privacy Policy to learn more. By continuing to use the site, you agree to this use of cookies and data.
  • In Hungary
  • List of Countries
  • For 7 days
  • Water Temperature
  • Satellite Maps
  • Weather Map
  • News
  • Weather Widgets
  • user-avatar
    Login

    Hourly Weather Katol

    Today, 20 March, Wednesday

    Time Temperature Precipitation Wind Pressure Humidity
    00:00 +30°C° 0 mm 4 mps 721 mmHg 34%
    01:00 +29°C° 0 mm 3 mps 721 mmHg 36%
    02:00 +29°C° 0 mm 3 mps 720 mmHg 39%
    03:00 +28°C° 0 mm 3 mps 720 mmHg 38%
    04:00 +28°C° 0 mm 3 mps 720 mmHg 38%
    05:00 +27°C° 0 mm 2 mps 720 mmHg 32%
    06:00 +28°C° 0 mm 3 mps 721 mmHg 32%
    07:00 +30°C° 0 mm 3 mps 721 mmHg 33%
    08:00 +32°C° 0 mm 4 mps 722 mmHg 33%
    09:00 +34°C° 0 mm 4 mps 722 mmHg 31%
    10:00 +35°C° 0 mm 4 mps 722 mmHg 30%
    11:00 +37°C° 0 mm 4 mps 722 mmHg 28%
    12:00 +37°C° 0 mm 4 mps 721 mmHg 26%
    13:00 +38°C° 0 mm 3 mps 720 mmHg 24%
    14:00 +38°C° 0 mm 3 mps 720 mmHg 22%
    15:00 +38°C° 0 mm 3 mps 720 mmHg 23%
    16:00 +37°C° 0 mm 4 mps 720 mmHg 25%
    17:00 +37°C° 0 mm 4 mps 720 mmHg 26%
    18:00 +36°C° 0 mm 3 mps 720 mmHg 29%
    19:00 +34°C° 0 mm 3 mps 720 mmHg 33%
    20:00 +32°C° 0 mm 2 mps 720 mmHg 37%
    21:00 +31°C° 0 mm 2 mps 721 mmHg 39%
    22:00 +31°C° 0 mm 2 mps 721 mmHg 41%
    23:00 +30°C° 0 mm 2 mps 721 mmHg 43%

    Tomorrow, 21 March, Thursday

    Time Temperature Precipitation Wind Pressure Humidity
    00:00 +29°C° 0.4 mm 3 mps 721 mmHg 48%
    01:00 +29°C° 0.4 mm 3 mps 720 mmHg 52%
    02:00 +28°C° 0.4 mm 4 mps 720 mmHg 56%
    03:00 +27°C° 0.8 mm 3 mps 720 mmHg 61%
    04:00 +27°C° 0.8 mm 2 mps 720 mmHg 65%
    05:00 +26°C° 0.8 mm 2 mps 720 mmHg 70%
    06:00 +27°C° 0 mm 2 mps 721 mmHg 65%
    07:00 +28°C° 0 mm 2 mps 722 mmHg 61%
    08:00 +29°C° 0 mm 2 mps 723 mmHg 56%
    09:00 +31°C° 0 mm 2 mps 723 mmHg 49%
    10:00 +34°C° 0 mm 3 mps 723 mmHg 42%
    11:00 +35°C° 0 mm 3 mps 723 mmHg 36%
    12:00 +36°C° 0 mm 3 mps 722 mmHg 32%
    13:00 +37°C° 0 mm 2 mps 722 mmHg 28%
    14:00 +38°C° 0 mm 2 mps 721 mmHg 25%
    15:00 +38°C° 0 mm 2 mps 721 mmHg 24%
    16:00 +38°C° 0 mm 2 mps 720 mmHg 24%
    17:00 +36°C° 0 mm 1 mps 720 mmHg 23%
    18:00 +36°C° 0 mm 1 mps 721 mmHg 25%
    19:00 +36°C° 0 mm 2 mps 721 mmHg 26%
    20:00 +35°C° 0 mm 2 mps 722 mmHg 27%
    21:00 +35°C° 0 mm 2 mps 722 mmHg 28%
    22:00 +34°C° 0 mm 2 mps 722 mmHg 29%
    23:00 +32°C° 0 mm 1 mps 722 mmHg 29%

    Day after tomorrow, 22 March, Friday

    Time Temperature Precipitation Wind Pressure Humidity
    00:00 +31°C° 0 mm 2 mps 722 mmHg 30%
    01:00 +31°C° 0 mm 2 mps 721 mmHg 30%
    02:00 +30°C° 0 mm 2 mps 721 mmHg 31%
    03:00 +29°C° 0 mm 2 mps 721 mmHg 30%
    04:00 +29°C° 0 mm 2 mps 721 mmHg 30%
    05:00 +28°C° 0 mm 2 mps 721 mmHg 29%
    06:00 +30°C° 0 mm 2 mps 722 mmHg 29%
    07:00 +31°C° 0 mm 3 mps 723 mmHg 28%
    08:00 +33°C° 0 mm 3 mps 723 mmHg 28%
    09:00 +34°C° 0 mm 3 mps 723 mmHg 26%
    10:00 +36°C° 0 mm 3 mps 723 mmHg 24%
    11:00 +37°C° 0 mm 3 mps 723 mmHg 22%
    12:00 +38°C° 0 mm 2 mps 723 mmHg 19%
    13:00 +39°C° 0 mm 2 mps 722 mmHg 16%
    14:00 +40°C° 0 mm 2 mps 721 mmHg 13%
    15:00 +40°C° 0 mm 2 mps 721 mmHg 12%
    16:00 +40°C° 0 mm 2 mps 721 mmHg 11%
    17:00 +40°C° 0 mm 3 mps 721 mmHg 9%
    18:00 +38°C° 0 mm 3 mps 721 mmHg 10%
    19:00 +37°C° 0 mm 3 mps 722 mmHg 11%
    20:00 +35°C° 0 mm 3 mps 722 mmHg 12%
    21:00 +34°C° 0 mm 3 mps 722 mmHg 13%
    22:00 +33°C° 0 mm 3 mps 722 mmHg 13%
    23:00 +31°C° 0 mm 3 mps 723 mmHg 14%

    23 March, Saturday

    Time Temperature Precipitation Wind Pressure Humidity
    00:00 +31°C° 0 mm 3 mps 722 mmHg 14%
    01:00 +30°C° 0 mm 3 mps 722 mmHg 14%
    02:00 +29°C° 0 mm 4 mps 721 mmHg 14%
    03:00 +29°C° 0 mm 4 mps 722 mmHg 15%
    04:00 +28°C° 0 mm 4 mps 722 mmHg 16%
    05:00 +28°C° 0 mm 4 mps 722 mmHg 17%
    06:00 +29°C° 0 mm 5 mps 723 mmHg 17%
    07:00 +30°C° 0 mm 5 mps 723 mmHg 16%
    08:00 +32°C° 0 mm 6 mps 724 mmHg 15%
    09:00 +34°C° 0 mm 5 mps 724 mmHg 14%
    10:00 +36°C° 0 mm 5 mps 724 mmHg 12%
    11:00 +38°C° 0 mm 4 mps 724 mmHg 11%
    12:00 +38°C° 0 mm 4 mps 723 mmHg 10%
    13:00 +39°C° 0 mm 3 mps 722 mmHg 10%
    14:00 +40°C° 0 mm 2 mps 721 mmHg 9%
    15:00 +40°C° 0 mm 2 mps 721 mmHg 9%
    16:00 +39°C° 0 mm 2 mps 721 mmHg 8%
    17:00 +39°C° 0 mm 2 mps 721 mmHg 8%
    18:00 +38°C° 0 mm 3 mps 721 mmHg 9%
    19:00 +36°C° 0 mm 3 mps 722 mmHg 10%
    20:00 +34°C° 0 mm 4 mps 722 mmHg 11%
    21:00 +33°C° 0 mm 3 mps 722 mmHg 12%
    22:00 +31°C° 0 mm 3 mps 722 mmHg 13%
    23:00 +30°C° 0 mm 3 mps 722 mmHg 14%

    24 March, Sunday

    Time Temperature Precipitation Wind Pressure Humidity
    00:00 +30°C° 0 mm 3 mps 722 mmHg 14%
    01:00 +29°C° 0 mm 3 mps 721 mmHg 15%
    02:00 +29°C° 0 mm 3 mps 721 mmHg 15%
    03:00 +28°C° 0 mm 3 mps 721 mmHg 15%
    04:00 +28°C° 0 mm 3 mps 721 mmHg 15%
    05:00 +27°C° 0 mm 3 mps 721 mmHg 15%
    06:00 +29°C° 0 mm 4 mps 722 mmHg 14%
    07:00 +30°C° 0 mm 4 mps 723 mmHg 13%
    08:00 +33°C° 0 mm 4 mps 724 mmHg 12%
    09:00 +34°C° 0 mm 4 mps 724 mmHg 11%
    10:00 +36°C° 0 mm 4 mps 723 mmHg 10%
    11:00 +38°C° 0 mm 4 mps 723 mmHg 9%
    12:00 +39°C° 0 mm 3 mps 723 mmHg 8%
    13:00 +40°C° 0 mm 2 mps 722 mmHg 8%
    14:00 +40°C° 0 mm 1 mps 721 mmHg 8%
    15:00 +40°C° 0 mm 1 mps 721 mmHg 8%
    16:00 +40°C° 0 mm 1 mps 721 mmHg 8%
    17:00 +39°C° 0 mm 1 mps 721 mmHg 8%
    18:00 +37°C° 0 mm 1 mps 721 mmHg 9%
    19:00 +36°C° 0 mm 1 mps 722 mmHg 9%
    20:00 +34°C° 0 mm 1 mps 722 mmHg 10%
    21:00 +34°C° 0 mm 2 mps 722 mmHg 11%
    22:00 +32°C° 0 mm 2 mps 722 mmHg 12%
    23:00 +33°C° 0 mm 3 mps 722 mmHg 13%

    25 March, Monday

    Time Temperature Precipitation Wind Pressure Humidity
    00:00 +31°C° 0 mm 3 mps 721 mmHg 13%
    01:00 +30°C° 0 mm 3 mps 721 mmHg 14%
    02:00 +30°C° 0 mm 3 mps 720 mmHg 14%
    03:00 +29°C° 0 mm 3 mps 721 mmHg 15%
    04:00 +29°C° 0 mm 3 mps 721 mmHg 16%
    05:00 +28°C° 0 mm 3 mps 721 mmHg 16%
    06:00 +30°C° 0 mm 3 mps 722 mmHg 16%
    07:00 +31°C° 0 mm 3 mps 723 mmHg 15%
    08:00 +34°C° 0 mm 3 mps 723 mmHg 14%
    09:00 +36°C° 0 mm 3 mps 723 mmHg 12%
    10:00 +37°C° 0 mm 4 mps 724 mmHg 11%
    11:00 +40°C° 0 mm 4 mps 724 mmHg 10%
    12:00 +40°C° 0 mm 3 mps 723 mmHg 9%
    13:00 +41°C° 0 mm 2 mps 722 mmHg 9%
    14:00 +42°C° 0 mm 1 mps 722 mmHg 8%
    15:00 +42°C° 0 mm 1 mps 721 mmHg 8%
    16:00 +41°C° 0 mm 1 mps 721 mmHg 8%
    17:00 +41°C° 0 mm 1 mps 721 mmHg 8%
    18:00 +40°C° 0 mm 1 mps 722 mmHg 8%
    19:00 +37°C° 0 mm 1 mps 722 mmHg 9%
    20:00 +36°C° 0 mm 1 mps 723 mmHg 10%
    21:00 +35°C° 0 mm 1 mps 723 mmHg 10%
    22:00 +34°C° 0 mm 1 mps 723 mmHg 11%
    23:00 +33°C° 0 mm 1 mps 723 mmHg 11%
    Show more